CZ-6A DEB, 61488

Orbit data source: Space-Track

CZ-6A DEB, 61488 is space debris in LEO originally from a launch on Tue, 06 Aug 2024 UTC launched from the Taiyaun Space Center, China (TSC). Debris objects in space refer to the collection of defunct objects orbiting the Earth. Examples of debris include non-operational satellites, rocket bodies, and fragments generated from explosions, collisions, or faulty payload assembly.

Loading next visibility...
Identifier
61488, 2024-140AAW
Orbit
LEO
Country
Flag of CNCN / PRC
Related business
Manufacturer
SAST
Mission
Spacecraft
Bus & Motor
Unknown
Mass
Unknown
Launch date (UTC)
2024-08-06 (2 years ago)
Launch vehicle
Unknown
Launch site
Taiyaun Space Center, China (TSC)
Object type
Payload
Rocket body
Debris
Shape & HBR
Unknown shape, 0.1 m
Radar Cross Section
Medium (>0.1 m² and <1 m²)

Expand to show TLE details & history
Last TLE update: 15 hours ago

TLE from 15 hours ago
0 CZ-6A DEB
1 61488U 24140AAW 26171.22249259  .00002077  00000-0  69910-3 0  9994
2 61488  88.6384 243.3483 0083961  46.8458 313.9719 14.34767091 92753
Epoch: 2026-06-20T05:20Z
TLE epoch observation values (Epoch: 2026-06-20T05:20:23.359Z)
Latitude
0.00001°
Longitude
-105.18924°
Altitude
737.464 km
Speed
7.508 km/s
True Right ascension
16h 13m 23s
True Declination
0° 00' 00"
Sunlit
Object was in full shadow at epoch
Visualization orbit readout
Latitude
Unknown
Longitude
Unknown
Altitude
Unknown
Speed
Unknown
Apparent Right ascension
Unknown
Apparent Declination
Unknown
Sunlit
N/A
Visualization observer readout
Local Sidereal Time
07:23:37
Azimuth
Unknown
Elevation
Unknown
Doppler factor
Unknown
Orbital elements
Apogee altitude
832.812 km
Perigee altitude
712.733 km
Semi-major axis
7,150.91 km
Eccentricity
0.0084
Inclination
88.6384°
RAAN
243.3483°
Arg. of periapsis
46.8458°
True anomaly
313.27442°
Mean anomaly
313.9719°
Eccentric anomaly
313.62367°
Mean motion
3.58923 °/min
Orbital period
100.3 mins
BSTAR
0.0006991
Loading maneuver chart data...
Computing Atmospheric mass density...
Loading historical data...
Loading historical data...
Loading historical data...
Loading historical data...
Loading historical data...
Loading historical data...
Loading historical data...

Documentation

Showing up to 5 results
|